Location: Prairie Dale
(45.6972°N, 104.5033°W)
Time: 03:23:47
(UTC+00:00)

AO-109 - Visible Passes

Search period start: 28 June 2022 00:00
Search period end: 08 July 2022 00:00
Orbit: 477 x 502 km, 60.7° (Epoch: 27 June)

Date Brightness Start Highest point End Pass type
(mag) Time Alt. Az. Time Alt. Az. Time Alt. Az.
01 Jul ? 10:29:09 10° S 10:32:28 32° SE 10:35:51 10° ENE visible
02 Jul ? 10:04:52 10° S 10:08:04 28° ESE 10:11:19 10° ENE visible
03 Jul ? 09:41:01 12° S 09:43:39 25° ESE 09:46:46 10° ENE visible
04 Jul ? 09:17:24 16° SSE 09:19:15 22° ESE 09:22:11 10° ENE visible
05 Jul ? 08:53:44 17° SE 08:54:49 19° ESE 08:57:33 10° ENE visible
05 Jul ? 10:28:24 10° WSW 10:32:01 48° NW 10:35:41 10° NE visible
06 Jul ? 08:29:59 17° SE 08:30:23 17° ESE 08:32:53 10° ENE visible
06 Jul ? 10:04:24 14° WSW 10:07:31 54° NW 10:11:13 10° NE visible
07 Jul ? 08:06:11 15° ESE 08:06:11 15° ESE 08:08:09 10° E visible
07 Jul ? 09:40:36 20° WSW 09:43:00 61° NW 09:46:44 10° NE visible
